Change the Weather History Date:

Sunday, August 31, 2014

  Actual Average Record
Temperature  
Mean Temperature 82 °F -  
Max Temperature 93 °F 91 °F 93 °F (2013)
Min Temperature 72 °F 69 °F 71 °F (2013)
Cooling Degree Days 18    
Growing Degree Days 32 (Base 50)    
Moisture  
Dew Point 71 °F    
Average Humidity 73    
Maximum Humidity 90    
Minimum Humidity 41    
Precipitation  
Precipitation 0.00 in - - ()
Sea Level Pressure  
Sea Level Pressure 30.08 in    
Wind  
Wind Speed 2 mph (SSE)    
Max Wind Speed 10 mph    
Max Gust Speed -    
Averages and records for this station are not official NWS values.
T = Trace of Precipitation, MM = Missing Value Source: NWS Daily Summary

Daily Weather History Graph

Daily Weather History Graph

Search for Another Location

Airport or City:

Trip Planner

Search our weather history database for the weather conditions in past years. The results will help you decide how hot, cold, wet, or windy it might be!

Date:

Astronomy

Aug. 31, 2014 Rise Set
Actual Time 6:35 AM CDT 7:23 PM CDT
Civil Twilight 6:10 AM CDT 7:48 PM CDT
Nautical Twilight 5:41 AM CDT 8:17 PM CDT
Astronomical Twilight 5:11 AM CDT 8:46 PM CDT
Moon 11:57 AM CDT (8/31) 11:04 PM CDT (8/31)
Length of Visible Light 13h 37m
Length of Day
12h 48m
Waxing Crescent, 32% of the Moon is Illuminated
Aug 31
Waxing Crescent
Sep 2
First Quarter
Sep 8
Full
Sep 15
Last Quarter
Sep 24
New

Hourly Weather History & Observations

Time (CDT) Temp. Heat Index Dew Point Humidity Pressure Visibility Wind Dir Wind Speed Gust Speed Precip Events Conditions
12:15 AM 75.2 °F - 71.6 °F 89% 30.06 in - Calm Calm - N/A   Unknown
12:35 AM 75.2 °F - 71.6 °F 89% 30.06 in - Calm Calm - N/A   Unknown
12:55 AM 74.8 °F - 71.1 °F 88% 30.06 in - Calm Calm - N/A   Unknown
1:15 AM 75.0 °F - 71.4 °F 89% 30.06 in - Calm Calm - N/A   Unknown
1:35 AM 74.8 °F - 71.2 °F 88% 30.05 in - Calm Calm - N/A   Unknown
1:55 AM 74.7 °F - 71.1 °F 88% 30.05 in - Calm Calm - N/A   Unknown
2:15 AM 74.5 °F - 70.9 °F 88% 30.06 in - Calm Calm - N/A   Unknown
2:35 AM 74.5 °F - 70.7 °F 88% 30.06 in - Calm Calm - N/A   Unknown
2:55 AM 73.8 °F - 70.2 °F 88% 30.05 in - Calm Calm - N/A   Unknown
3:15 AM 73.4 °F - 69.8 °F 88% 30.06 in - Calm Calm - N/A   Unknown
3:35 AM 72.9 °F - 69.6 °F 90% 30.06 in - Calm Calm - N/A   Unknown
3:55 AM 73.2 °F - 70.0 °F 90% 30.06 in - Calm Calm - N/A   Unknown
4:15 AM 72.5 °F - 69.3 °F 90% 30.06 in - Calm Calm - N/A   Mostly Cloudy
4:35 AM 73.0 °F - 69.8 °F 90% 30.07 in - North 4.6 mph - N/A   Overcast
4:55 AM 73.6 °F - 70.3 °F 90% 30.07 in - Calm Calm - N/A   Overcast
5:15 AM 73.9 °F - 70.7 °F 90% 30.07 in - Calm Calm - N/A   Overcast
5:35 AM 74.3 °F - 70.7 °F 88% 30.08 in - Calm Calm - N/A   Overcast
6:00 AM 74.5 °F - 70.7 °F 88% 30.09 in - Calm Calm - N/A   Overcast
6:15 AM 74.8 °F - 71.1 °F 88% 30.09 in - Calm Calm - N/A   Overcast
6:35 AM 75.2 °F - 71.2 °F 87% 30.10 in - Calm Calm - N/A   Overcast
6:55 AM 75.2 °F - 71.6 °F 89% 30.10 in - Calm Calm - N/A   Overcast
7:15 AM 75.2 °F - 71.6 °F 89% 30.10 in - Calm Calm - N/A   Overcast
7:35 AM 75.4 °F - 72.0 °F 89% 30.10 in - Calm Calm - N/A   Overcast
7:55 AM 75.7 °F - 72.5 °F 90% 30.10 in - Calm Calm - N/A   Overcast
8:15 AM 76.3 °F - 73.0 °F 90% 30.11 in - Calm Calm - N/A   Overcast
8:35 AM 77.0 °F - 73.6 °F 89% 30.11 in - Calm Calm - N/A   Overcast
8:55 AM 78.3 °F - 75.0 °F 90% 30.11 in - Calm Calm - N/A   Overcast
9:15 AM 79.2 °F - 75.7 °F 89% 30.11 in - Calm Calm - N/A   Overcast
9:35 AM 80.8 °F 87.2 °F 76.6 °F 87% 30.12 in - Calm Calm - N/A   Overcast
9:55 AM 83.1 °F 92.3 °F 77.0 °F 82% 30.12 in - SSW 5.8 mph - N/A   Overcast
10:15 AM 86.2 °F 98.3 °F 77.7 °F 76% 30.12 in - South 4.6 mph - N/A   Mostly Cloudy
10:35 AM 86.0 °F 96.4 °F 76.6 °F 73% 30.13 in - South 6.9 mph - N/A   Unknown
11:15 AM 89.4 °F 100.0 °F 75.6 °F 63% 30.13 in - South 6.9 mph - N/A   Unknown
12:15 PM 91.4 °F 99.5 °F 72.5 °F 54% 30.11 in - SSE 9.2 mph - N/A   Scattered Clouds
12:35 PM 91.4 °F 97.3 °F 70.2 °F 50% 30.10 in - SSE 9.2 mph - N/A   Clear
12:55 PM 91.9 °F 96.4 °F 68.7 °F 46% 30.10 in - SSE 4.6 mph - N/A   Clear
1:15 PM 92.1 °F 96.7 °F 68.4 °F 46% 30.09 in - SSE 10.4 mph - N/A   Clear
1:35 PM 92.3 °F 98.1 °F 69.8 °F 48% 30.09 in - SE 6.9 mph - N/A   Clear
1:55 PM 92.7 °F 96.7 °F 68.0 °F 44% 30.08 in - SSW 6.9 mph - N/A   Clear
2:15 PM 92.8 °F 97.6 °F 68.4 °F 45% 30.07 in - South 6.9 mph - N/A   Clear
2:35 PM 93.4 °F 96.6 °F 66.7 °F 41% 30.07 in - SSE 9.2 mph - N/A   Clear
2:55 PM 93.6 °F 97.4 °F 67.1 °F 42% 30.07 in - South 6.9 mph - N/A   Scattered Clouds
3:15 PM 93.9 °F 99.1 °F 69.3 °F 44% 30.06 in - SSE 8.1 mph - N/A   Mostly Cloudy
3:35 PM 93.7 °F 98.2 °F 68.4 °F 43% 30.05 in - South 4.6 mph - N/A   Scattered Clouds
3:55 PM 91.9 °F 95.9 °F 67.8 °F 45% 30.05 in - South 9.2 mph - N/A   Scattered Clouds
4:15 PM 92.8 °F 97.6 °F 68.7 °F 45% 30.05 in - SSE 6.9 mph - N/A   Scattered Clouds
4:35 PM 91.9 °F 95.9 °F 67.8 °F 45% 30.05 in - SSE 8.1 mph - N/A   Scattered Clouds
4:55 PM 91.4 °F 96.3 °F 68.9 °F 48% 30.05 in - South 9.2 mph - N/A   Clear
5:15 PM 90.9 °F 95.8 °F 69.1 °F 49% 30.05 in - South 6.9 mph - N/A   Clear
5:35 PM 90.7 °F 95.4 °F 69.1 °F 49% 30.05 in - South 8.1 mph - N/A   Clear
5:55 PM 90.0 °F 94.1 °F 68.4 °F 49% 30.05 in - SSE 6.9 mph - N/A   Clear
6:15 PM 89.2 °F 94.1 °F 69.6 °F 52% 30.05 in - SSE 6.9 mph - N/A   Clear
6:35 PM 88.7 °F 94.3 °F 70.7 °F 55% 30.05 in - SSE 4.6 mph - N/A   Clear
6:55 PM 87.8 °F 93.4 °F 70.9 °F 57% 30.06 in - South 5.8 mph - N/A   Clear
7:15 PM 86.0 °F 91.5 °F 71.2 °F 61% 30.06 in - SSE 4.6 mph - N/A   Clear
7:35 PM 84.6 °F 90.3 °F 72.1 °F 66% 30.06 in - SSE 4.6 mph - N/A   Clear
7:55 PM 83.8 °F 89.5 °F 72.1 °F 68% 30.06 in - SE 5.8 mph - N/A   Clear
8:15 PM 82.9 °F 88.5 °F 72.5 °F 71% 30.07 in - SSE 4.6 mph - N/A   Clear
8:35 PM 82.4 °F 87.7 °F 72.7 °F 72% 30.06 in - SSE 3.5 mph - N/A   Clear
8:55 PM 81.9 °F 87.0 °F 72.7 °F 74% 30.07 in - SE 3.5 mph - N/A   Clear
9:15 PM 81.1 °F 86.2 °F 73.2 °F 77% 30.07 in - SE 3.5 mph - N/A   Clear
9:35 PM 80.8 °F 85.6 °F 73.4 °F 78% 30.07 in - SE 3.5 mph - N/A   Clear
9:55 PM 80.6 °F 85.4 °F 73.6 °F 79% 30.08 in - Calm Calm - N/A   Clear
10:15 PM 79.9 °F - 73.6 °F 81% 30.08 in - Calm Calm - N/A   Clear
10:35 PM 79.7 °F - 73.8 °F 82% 30.08 in - Calm Calm - N/A   Clear
11:15 PM 77.5 °F - 72.0 °F 83% 30.07 in - Calm Calm - N/A   Clear
11:35 PM 75.7 °F - 71.8 °F 87% 30.07 in - Calm Calm - N/A   Unknown
11:55 PM 77.5 °F - 73.6 °F 88% 30.06 in - Calm Calm - N/A   Unknown